"TOA5","AWS1","CR1000","7964","CR1000.Std.14","CPU:AWS1_114.CR1","64363","TBL110"
"TIMESTAMP","RECORD","Wind_spd_WVc(1)","Wind_spd_WVc(2)","Air_Temp_Avg","Humidity_Avg","SW_upper_Wm2_Avg","Rain_Tot","Press_Avg","Issui_Tot","Depth_cm","SR50A_Raw","Quality","Ground_Temp_Avg(1)","Ground_Temp_Avg(2)","SW_lower_Wm2_Avg","Albedo_Avg","SWC_per(1)","SWC_per(2)","Period(1)","Period(2)"
"TS","RN","","","","","","","","","","","","","","","","","","",""
"","","WVc","WVc","Avg","Avg","Avg","Tot","Avg","Tot","Smp","Smp","Smp","Avg","Avg","Avg","Avg","Smp","Smp","Smp","Smp"
"2016-08-17 00:00:00",249037,0.111,268.1,18.53,100,0,0,857.2968,0,-3.216,3.109,229,21.95,21.37,0.5570625,0,48.65,54.92,32.96,34.49
"2016-08-17 00:10:00",249038,0.138,238.7,18.44,100,0,0,857.2968,0,-3.216,3.109,234,21.92,21.38,0.5760102,0,48.59,54.92,32.95,34.49
"2016-08-17 00:20:00",249039,0.229,149.8,18.43,100,0,0,857.2968,0,-3.216,3.109,235,21.89,21.37,0.4054809,0,48.65,54.92,32.96,34.49
"2016-08-17 00:30:00",249040,0.08,201.4,18.39,100,0,0,857.2968,0,-2.905,3.106,245,21.89,21.38,0.420639,0,48.65,54.97,32.96,34.51
"2016-08-17 00:40:00",249041,0.078,141.1,18.36,100,0,0,857.2968,0,-2.755,3.105,245,21.93,21.41,0.9094898,0,48.65,54.92,32.96,34.49
"2016-08-17 00:50:00",249042,0.017,271.5,18.41,100,0,0,857.2968,0,-2.493,3.102,259,21.93,21.41,1.163389,0,48.65,54.97,32.96,34.51
"2016-08-17 01:00:00",249043,0.222,216.3,18.33,100,0,0,857.2777,0,-2.398,3.102,270,21.83,21.41,0.875384,0,48.65,54.97,32.96,34.51
"2016-08-17 01:10:00",249044,0.23,303.7,18.28,100,0,0,857.0713,0,-2.294,3.101,255,21.8,21.39,0.7654873,0,48.65,54.97,32.96,34.51
"2016-08-17 01:20:00",249045,0.221,188.2,18.26,100,0,0,857.0439,0,-2.866,3.107,222,21.8,21.39,0.8412781,0,48.7,54.97,32.97,34.51
"2016-08-17 01:30:00",249046,0.391,196.3,18.13,100,0,0,857.0439,0,-2.818,3.107,232,21.81,21.4,0.7920141,0,48.65,54.97,32.96,34.51
"2016-08-17 01:40:00",249047,0.499,222.1,18.1,100,0,0,856.9955,0,-2.921,3.108,218,21.82,21.38,0.553273,0,48.65,55.03,32.96,34.52
"2016-08-17 01:50:00",249048,0.392,249.5,18.17,100,0,0,856.8712,0,-2.905,3.106,220,21.79,21.38,1.254338,0,48.65,55.03,32.96,34.52
"2016-08-17 02:00:00",249049,0.315,178.9,18.36,100,0,0,856.8881,0,-3.272,3.11,210,21.72,21.39,1.40592,0,48.65,55.03,32.96,34.52
"2016-08-17 02:10:00",249050,0.396,295.6,18.25,100,0,0,856.9766,0,-3.175,3.11,214,21.71,21.4,0.7730663,0,48.65,55.03,32.96,34.52
"2016-08-17 02:20:00",249051,0.118,30.56,18.01,100,0,0,857.0418,0,-3.183,3.111,201,21.71,21.38,0.231162,0,48.59,55.03,32.95,34.52
"2016-08-17 02:30:00",249052,0,0,18.08,100,0,0,856.8544,0,-2.922,3.108,200,21.72,21.39,0.4395868,0,48.65,55.09,32.96,34.53
"2016-08-17 02:40:00",249053,0.078,211.3,18.23,100,0,0,856.7617,0,-3.176,3.11,199,21.7,21.37,0.8109618,0,48.59,55.09,32.95,34.53
"2016-08-17 02:50:00",249054,0.172,41.97,18.5,100,0,0,856.6269,0,-2.843,3.104,198,21.66,21.38,1.621924,0,48.65,55.09,32.96,34.53
"2016-08-17 03:00:00",249055,0.426,9.01,18.93,96.8,0.05109369,0,856.709,0,-2.987,3.104,204,21.63,21.37,2.220671,1.88,48.65,55.09,32.96,34.53
"2016-08-17 03:10:00",249056,0.32,328.9,19.05,94.2,0.5070066,0,856.5427,0,-3.097,3.106,205,21.63,21.37,1.955403,4.058,48.65,55.09,32.96,34.53
"2016-08-17 03:20:00",249057,0.168,175.8,18.57,99.9,0,0,856.5405,0,-3.2,3.107,200,21.65,21.37,0.8791735,0,48.65,55.09,32.96,34.53
"2016-08-17 03:30:00",249058,0.353,213.4,18.66,98.7,0,0,856.53,0,-3.67,3.112,200,21.71,21.37,1.364235,0,48.59,55.15,32.95,34.55
"2016-08-17 03:40:00",249059,0.272,246.4,18.77,97.4,0,0,856.5342,0,-3.788,3.115,200,21.69,21.37,1.375603,0,48.65,55.15,32.96,34.55
"2016-08-17 03:50:00",249060,0.322,282.6,18.24,100,0,0,856.5616,0,-3.652,3.116,195,21.59,21.37,0.4888508,0,48.65,55.15,32.96,34.55
"2016-08-17 04:00:00",249061,0.072,344.8,17.77,100,0,0,856.7596,0,-3.579,3.116,201,21.54,21.37,0.2349515,0,48.65,55.15,32.96,34.55
"2016-08-17 04:10:00",249062,0.118,323.5,17.71,100,0,0,856.787,0,-3.713,3.118,190,21.57,21.36,0.3600064,0,48.65,55.15,32.96,34.55
"2016-08-17 04:20:00",249063,0.09,151.9,17.54,100,0,0,856.7955,0,-4.029,3.122,189,21.62,21.35,0.2576888,0,48.65,55.15,32.96,34.55
"2016-08-17 04:30:00",249064,0.014,132,17.4,100,0,0,856.9702,0,-3.879,3.121,195,21.53,21.33,0.4547449,0,48.65,55.15,32.96,34.55
"2016-08-17 04:40:00",249065,0.035,158.6,17.4,100,0,0,857.0397,0,-3.624,3.119,195,21.46,21.29,0.784435,0,48.65,55.15,32.96,34.55
"2016-08-17 04:50:00",249066,0.122,160.2,17.08,100,0,0,857.0145,0,-4.019,3.124,190,21.46,21.29,0.2880051,0,48.65,55.15,32.96,34.55
"2016-08-17 05:00:00",249067,0.132,324,17.45,100,0.180793,0,857.025,0,-3.451,3.115,208,21.49,21.3,1.216443,0.782,48.65,55.2,32.96,34.56
"2016-08-17 05:10:00",249068,0.087,59.59,17.67,100,0.7192419,0,857.0481,0,-3.666,3.118,201,21.5,21.29,0.6404324,0.865,48.65,55.2,32.96,34.56
"2016-08-17 05:20:00",249069,0.479,341.7,18.11,100,1.25376,0,857.0439,0,-3.247,3.11,213,21.48,21.28,0.735171,0.631,48.65,55.2,32.96,34.56
"2016-08-17 05:30:00",249070,0.141,68.71,18.15,100,2.240262,0,857.0439,0,-3.438,3.113,204,21.38,21.28,0.2235829,0.099,48.65,55.2,32.96,34.56
"2016-08-17 05:40:00",249071,0.264,288,18.27,100,2.876967,0,857.0439,0,-3.009,3.107,231,21.37,21.28,0.5494834,0.191,48.65,55.2,32.96,34.56
"2016-08-17 05:50:00",249072,0.156,45.32,18.31,100,7.648332,0,857.0439,0,-4.154,3.119,189,21.37,21.28,0.9966493,0.14,48.65,55.2,32.96,34.56
"2016-08-17 06:00:00",249073,0.182,315.1,18.36,100,8.619111,0,857.0544,0,-4.353,3.12,188,21.36,21.28,1.284654,0.151,48.65,55.26,32.96,34.57
"2016-08-17 06:10:00",249074,0.341,312.6,18.41,100,16.39714,0,857.1766,0,-4.718,3.124,183,21.32,21.28,2.459412,0.152,48.65,55.2,32.96,34.56
"2016-08-17 06:20:00",249075,0.174,260.6,18.43,100,35.64767,0,857.2968,0,-4.893,3.125,190,21.28,21.3,4.968088,0.141,48.65,55.26,32.96,34.57
"2016-08-17 06:30:00",249076,0.056,311.2,18.45,100,5.639956,0.5,857.3135,0,-2.827,3.105,191,21.28,21.31,1.019387,0.196,48.65,55.26,32.96,34.57
"2016-08-17 06:40:00",249077,0.088,13.99,18.42,100,6.834763,1,857.5242,0,-3.582,3.113,172,21.3,21.33,1.015597,0.155,48.65,55.26,32.96,34.57
"2016-08-17 06:50:00",249078,0.564,327.8,18.28,100,28.91903,0,857.5536,0,-3.431,3.112,195,21.32,21.33,3.592485,0.125,48.65,55.26,32.96,34.57
"2016-08-17 07:00:00",249079,0.425,26.94,18.32,100,67.83669,0,857.5557,0,-3.272,3.11,184,21.27,21.34,8.594679,0.126,48.7,55.26,32.97,34.57
"2016-08-17 07:10:00",249080,0.467,68.41,18.44,100,51.01508,0,857.5494,0,-3.63,3.113,187,21.27,21.35,6.540748,0.128,48.75,55.26,32.99,34.57
"2016-08-17 07:20:00",249081,0.503,241,18.51,100,81.67129,0,857.5515,0,-3.932,3.115,188,21.21,21.35,10.46671,0.128,48.75,55.26,32.99,34.57
"2016-08-17 07:30:00",249082,0.323,261.2,18.55,100,69.99049,0,857.5494,0,-4.068,3.117,198,21.19,21.34,8.852367,0.127,48.75,55.26,32.99,34.57
"2016-08-17 07:40:00",249083,0.492,307.9,18.55,100,74.10942,0,857.5641,0,-4.242,3.118,184,21.19,21.31,9.435957,0.127,48.75,55.26,32.99,34.57
"2016-08-17 07:50:00",249084,0.535,280.6,18.59,100,88.07765,0,857.5494,0,-4.036,3.116,192,21.19,21.29,10.94419,0.124,48.81,55.26,33,34.57
"2016-08-17 08:00:00",249085,0.691,297.2,18.57,100,115.5032,0,857.6969,0,-4.036,3.116,189,21.19,21.28,15.09374,0.13,48.81,55.26,33,34.57
"2016-08-17 08:10:00",249086,0.405,312.2,18.7,100,94.3779,0,857.8022,0,-3.98,3.115,190,21.19,21.25,12.09243,0.128,48.81,55.32,33,34.59
"2016-08-17 08:20:00",249087,0.371,293.8,18.79,100,125.6001,0,857.8022,0,-3.869,3.113,191,21.19,21.25,15.78723,0.125,48.86,55.32,33.01,34.59
"2016-08-17 08:30:00",249088,0.158,262,18.84,100,111.8362,0,857.8085,0,-3.869,3.113,188,21.19,21.22,14.24867,0.127,48.86,55.32,33.01,34.59
"2016-08-17 08:40:00",249089,0.156,247.7,19.01,100,114.5638,0,857.838,0,-4.275,3.116,191,21.19,21.2,14.4192,0.126,48.86,55.37,33.01,34.6
"2016-08-17 08:50:00",249090,0.059,285,19.08,100,75.02911,0,857.977,0,-3.917,3.113,181,21.19,21.19,8.606048,0.114,48.86,55.37,33.01,34.6
"2016-08-17 09:00:00",249091,0.195,354.1,19.01,100,115.0551,0,858.0486,0,-3.647,3.109,187,21.19,21.19,14.72616,0.126,48.86,55.37,33.01,34.6
"2016-08-17 09:10:00",249092,0.221,211.2,19.21,100,186.602,0,858.0802,0,-3.718,3.109,173,21.19,21.19,23.96885,0.127,48.92,55.37,33.03,34.6
"2016-08-17 09:20:00",249093,0.071,156.8,19.46,100,133.61,0,858.293,0,-4.172,3.112,181,21.17,21.19,16.24197,0.119,48.92,55.43,33.03,34.61
"2016-08-17 09:30:00",249094,0.285,80.4,19.27,100,89.27246,0,858.3077,0,-3.734,3.111,181,21.17,21.19,11.25494,0.123,48.92,55.43,33.03,34.61
"2016-08-17 09:40:00",249095,0.293,205,19.36,100,288.6086,0,858.3077,0,-4.069,3.111,195,21.16,21.19,37.22466,0.126,48.92,55.43,33.03,34.61
"2016-08-17 09:50:00",249096,0.373,328.9,19.45,100,75.11165,0,858.3077,0,-4.157,3.113,189,21.18,21.19,8.211935,0.109,48.86,55.49,33.01,34.63
"2016-08-17 10:00:00",249097,0.241,48.49,19.27,100,70.19485,0,858.3077,0,-4.038,3.113,185,21.17,21.2,8.564363,0.121,48.86,55.49,33.01,34.63
"2016-08-17 10:10:00",249098,0.26,47.97,19.22,100,119.7636,0,858.3361,0,-4.109,3.113,189,21.25,21.21,15.98428,0.134,48.92,55.49,33.03,34.63
"2016-08-17 10:20:00",249099,0.07,59.57,19.33,100,54.89427,0,858.4117,0,-3.831,3.111,190,21.28,21.24,6.093582,0.108,48.92,55.55,33.03,34.64
"2016-08-17 10:30:00",249100,0.328,61.45,19.08,100,45.53626,0.5,858.537,0,-4.665,3.12,179,21.28,21.27,5.335673,0.116,48.92,55.55,33.03,34.64
"2016-08-17 10:40:00",249101,0.531,354.9,18.89,100,111.6947,0,858.5604,0,-3.996,3.114,194,21.28,21.22,13.94172,0.124,48.92,55.49,33.03,34.63
"2016-08-17 10:50:00",249102,0.354,179.1,18.93,100,187.278,0,858.5604,0,-4.044,3.114,190,21.28,21.2,23.85516,0.127,48.92,55.55,33.03,34.64
"2016-08-17 11:00:00",249103,0.507,217.7,19.19,100,302.6829,0,858.4846,0,-3.17,3.103,219,21.26,21.23,39.44912,0.13,48.92,55.6,33.03,34.65
"2016-08-17 11:10:00",249104,0.194,212.4,19.99,99.9,406.7922,0,858.3962,0,-3.839,3.106,191,21.3,21.21,51.65902,0.127,48.92,55.6,33.03,34.65
"2016-08-17 11:20:00",249105,0.094,225.1,20.59,100,545.4369,0,858.3456,0,-3.598,3.1,225,21.33,21.19,70.77346,0.13,48.92,55.55,33.03,34.64
"2016-08-17 11:30:00",249106,0.271,324.6,20.86,88.1,745.7438,0,858.3028,0,-3.756,3.099,185,21.3,21.17,96.74698,0.129,48.97,55.55,33.04,34.64
"2016-08-17 11:40:00",249107,0.165,279.6,21.09,90.5,398.0434,0,858.2956,0,-4.013,3.104,195,21.33,21.15,48.58949,0.122,48.92,55.6,33.03,34.65
"2016-08-17 11:50:00",249108,0.289,297.6,20.45,95.4,312.2099,0,858.2843,0,-4.149,3.109,190,21.34,21.18,39.48701,0.126,48.92,55.66,33.03,34.67
"2016-08-17 12:00:00",249109,0.193,336.6,20.33,99.7,253.6173,0,858.3075,0,-3.694,3.103,199,21.41,21.12,32.08604,0.126,48.92,55.6,33.03,34.65
"2016-08-17 12:10:00",249110,0.085,5.767,20.64,99.7,383.128,0,858.3515,0,-3.806,3.102,185,21.42,21.06,51.7765,0.135,48.92,55.6,33.03,34.65
"2016-08-17 12:20:00",249111,0.062,148.2,20.98,97,193.8056,0,858.3359,0,-4.002,3.103,187,21.39,21.05,23.5633,0.121,48.97,55.66,33.04,34.67
"2016-08-17 12:30:00",249112,0.123,304.5,20.6,100,100.0795,0,858.3129,0,-4.035,3.107,183,21.53,21.05,10.94785,0.107,48.97,55.66,33.04,34.67
"2016-08-17 12:40:00",249113,0.064,309.9,20.3,100,191.1363,0,858.3932,0,-3.59,3.102,194,21.54,21.09,24.8327,0.13,48.97,55.66,33.04,34.67
"2016-08-17 12:50:00",249114,0.23,300,20.53,99,240.3088,0,858.5137,0,-4.157,3.107,187,21.59,21.1,31.30154,0.13,48.97,55.72,33.04,34.68
"2016-08-17 13:00:00",249115,0.305,303.4,20.48,98.4,267.9666,0,858.5252,0,-4.029,3.106,173,21.58,21.09,35.61409,0.133,48.97,55.72,33.04,34.68
"2016-08-17 13:10:00",249116,0.303,355.5,20.76,95.4,409.0953,0,858.5046,0,-4.235,3.105,187,21.61,21.07,56.11552,0.136,48.92,55.72,33.03,34.68
"2016-08-17 13:20:00",249117,0.229,3.405,21.38,92.9,504.6641,0,858.4531,0,-4.242,3.103,208,21.66,21.03,68.34437,0.131,48.92,55.72,33.03,34.68
"2016-08-17 13:30:00",249118,0.443,36.73,21.22,97.6,231.0614,0,858.5225,0,-3.892,3.101,183,21.64,21.03,28.48598,0.123,48.92,55.72,33.03,34.68
"2016-08-17 13:40:00",249119,0.529,8.14,21.32,90.9,517.7677,0,858.5447,0,-3.667,3.097,187,21.75,21.04,72.53181,0.137,48.92,55.72,33.03,34.68
"2016-08-17 13:50:00",249120,0.359,56.11,21.69,90.4,290.9235,0,858.5354,0,-3.77,3.098,190,21.72,21.03,36.80402,0.126,48.92,55.72,33.03,34.68
"2016-08-17 14:00:00",249121,0.288,290.4,21.22,88.8,209.437,0,858.5111,0,-4.443,3.107,190,21.77,21.03,25.21182,0.119,48.92,55.77,33.03,34.7
"2016-08-17 14:10:00",249122,0.204,218.7,20.85,94,164.9147,0,858.5084,0,-4.603,3.109,193,21.85,21.06,20.13004,0.121,48.92,55.77,33.03,34.7
"2016-08-17 14:20:00",249123,0.648,319.3,20.75,91.4,276.8217,0,858.5517,0,-4.484,3.109,197,21.89,21.06,36.75854,0.133,48.97,55.77,33.04,34.7
"2016-08-17 14:30:00",249124,0.692,312.3,20.75,85.9,257.5908,0,858.6425,0,-4.739,3.111,203,21.91,21.08,34.57198,0.134,48.92,55.77,33.03,34.7
"2016-08-17 14:40:00",249125,0.626,212.2,20.73,88,204.8425,0,858.5632,0,-4.412,3.109,202,21.93,21.09,26.60637,0.129,48.92,55.77,33.03,34.7
"2016-08-17 14:50:00",249126,0.558,186,20.34,95.9,205.0783,0,858.5988,0,-4.348,3.11,186,21.89,21.09,27.09522,0.131,48.92,55.77,33.03,34.7
"2016-08-17 15:00:00",249127,0.35,201.1,20.53,97.9,283.3813,0,858.7791,0,-3.358,3.097,235,22.03,21.06,38.71774,0.137,48.92,55.77,33.03,34.7
"2016-08-17 15:10:00",249128,0.37,192.4,21,92.4,317.3154,0,858.788,0,-4.635,3.11,189,22.01,21.03,43.01508,0.135,48.86,55.77,33.01,34.7
"2016-08-17 15:20:00",249129,0.367,220.6,21.05,88.8,226.062,0,858.8106,0,-3.628,3.098,220,22.12,21.08,29.14157,0.129,48.92,55.77,33.03,34.7
"2016-08-17 15:30:00",249130,0.228,208.4,21.43,84.3,266.3317,0,858.8134,0,-3.699,3.098,185,22.09,21.13,35.89832,0.135,48.92,55.83,33.03,34.71
"2016-08-17 15:40:00",249131,0.415,226.5,21.29,88.1,191.7428,0,858.9548,0,-4.146,3.103,179,22.13,21.16,23.89684,0.124,48.92,55.83,33.03,34.71
"2016-08-17 15:50:00",249132,0.317,261.1,21.43,85.7,233.9934,0,859.0579,0,-4.281,3.102,186,22.19,21.16,30.99845,0.132,48.86,55.77,33.01,34.7
"2016-08-17 16:00:00",249133,0.26,86.8,21.6,86.1,174.3277,0,859.0674,0,-4.083,3.101,211,22.17,21.16,21.57007,0.124,48.86,55.77,33.01,34.7
"2016-08-17 16:10:00",249134,0.196,117.7,21.48,85.8,153.4147,0,859.1176,0,-3.874,3.099,196,22.16,21.17,18.4778,0.12,48.86,55.77,33.01,34.7
"2016-08-17 16:20:00",249135,0.422,303,21.51,83.8,162.9967,0,859.2795,0,-3.866,3.098,205,22.25,21.18,21.27069,0.13,48.86,55.77,33.01,34.7
"2016-08-17 16:30:00",249136,0.267,125.3,21.61,84,165.3706,0,859.3004,0,-4.305,3.102,185,22.28,21.17,22.15366,0.134,48.86,55.77,33.01,34.7
"2016-08-17 16:40:00",249137,0.312,88.4,21.74,83.8,140.936,0,859.3049,0,-3.753,3.096,199,22.24,21.16,18.26938,0.129,48.86,55.83,33.01,34.71
"2016-08-17 16:50:00",249138,0.474,39.2,21.8,83.1,124.9673,0,859.3112,0,-3.866,3.098,213,22.22,21.15,16.67398,0.133,48.81,55.83,33,34.71
"2016-08-17 17:00:00",249139,0.289,182.1,21.56,86.3,118.8557,0,859.4889,0,-4.043,3.102,199,22.33,21.15,15.59017,0.131,48.81,55.83,33,34.71
"2016-08-17 17:10:00",249140,0.345,232.4,21.21,86.9,117.8613,0,859.5714,0,-3.892,3.101,193,22.37,21.15,15.93123,0.135,48.86,55.83,33.01,34.71
"2016-08-17 17:20:00",249141,0.411,253.9,21.32,86.9,155.6274,0,859.5724,0,-3.803,3.099,218,22.37,21.15,23.26399,0.149,48.86,55.83,33.01,34.71
"2016-08-17 17:30:00",249142,0.157,256.1,21.43,87.2,124.5703,0,859.6685,0,-4.058,3.101,195,22.34,21.15,17.67442,0.142,48.81,55.83,33,34.71
"2016-08-17 17:40:00",249143,0.257,257.7,21.17,87.4,93.41891,0,859.8152,0,-4.555,3.109,200,22.33,21.14,11.76274,0.122,48.81,55.83,33,34.71
"2016-08-17 17:50:00",249144,0.114,256.7,20.64,89.9,42.78899,0,859.799,0,-4.18,3.107,194,22.33,21.15,3.38406,0.077,48.81,55.83,33,34.71
"2016-08-17 18:00:00",249145,0.113,294.1,20.53,91.6,39.12204,0,859.8161,0,-3.893,3.104,212,22.34,21.16,4.467868,0.113,48.81,55.83,33,34.71
"2016-08-17 18:10:00",249146,0.079,147.3,20.55,92.1,28.02292,0,859.8275,0,-3.878,3.105,205,22.44,21.18,3.156688,0.112,48.81,55.83,33,34.71
"2016-08-17 18:20:00",249147,0.175,66.18,20.54,91.7,19.68286,0,860.0037,0,-3.822,3.104,218,22.48,21.21,2.451833,0.125,48.81,55.83,33,34.71
"2016-08-17 18:30:00",249148,0.087,30.58,20.43,93.8,11.56682,0,860.0776,0,-4.564,3.113,185,22.5,21.24,1.443815,0.115,48.81,55.83,33,34.71
"2016-08-17 18:40:00",249149,0.089,32.21,19.93,100,2.122353,0,860.2409,0,-4.524,3.114,203,22.5,21.25,0.01515816,0.003,48.86,55.83,33.01,34.71
"2016-08-17 18:50:00",249150,0,0,19.81,100,0,0,860.3297,0,-3.982,3.109,224,22.5,21.28,0,0,48.81,55.83,33,34.71
"2016-08-17 19:00:00",249151,0.067,292.4,19.68,100,0,0,860.3297,0,-3.942,3.11,221,22.49,21.28,0,0,48.81,55.83,33,34.71
"2016-08-17 19:10:00",249152,0.042,334.3,19.47,100,0,0,860.3297,0,-3.997,3.111,220,22.47,21.28,0,0,48.81,55.83,33,34.71
"2016-08-17 19:20:00",249153,0,0,19.19,100,0,0,860.395,0,-3.886,3.112,226,22.4,21.28,0,0,48.81,55.83,33,34.71
"2016-08-17 19:30:00",249154,0.01,170.4,18.91,100,0,0,860.5424,0,-3.877,3.114,212,22.38,21.28,0,0,48.81,55.83,33,34.71
"2016-08-17 19:40:00",249155,0,0,18.72,100,0,0,860.6414,0,-4.028,3.115,195,22.38,21.28,0.03789541,0,48.81,55.83,33,34.71
"2016-08-17 19:50:00",249156,0,0,18.86,100,0,0,860.8351,0,-4.18,3.116,205,22.41,21.28,0.4661135,0,48.81,55.83,33,34.71
"2016-08-17 20:00:00",249157,0.029,171.8,18.7,100,0,0,861.0099,0,-3.916,3.116,210,22.41,21.28,0.2273725,0,48.81,55.89,33,34.72
"2016-08-17 20:10:00",249158,0,0,18.58,100,0,0,861.1279,0,-4.028,3.115,210,22.4,21.3,0.4092704,0,48.75,55.83,32.99,34.71
"2016-08-17 20:20:00",249159,0,0,18.75,100,0,0,861.3407,0,-3.98,3.115,213,22.35,21.36,0.4244286,0,48.75,55.83,32.99,34.71
"2016-08-17 20:30:00",249160,0.03,140.7,18.57,100,0,0,861.3407,0,-4.036,3.116,195,22.33,21.37,0.2273725,0,48.75,55.83,32.99,34.71
"2016-08-17 20:40:00",249161,0,0,18.8,100,0,0,861.3764,0,-4.124,3.115,199,22.32,21.37,0.5381148,0,48.75,55.83,32.99,34.71
"2016-08-17 20:50:00",249162,0.168,309.1,19.21,96.9,0,0,861.5112,0,-4.523,3.117,197,22.35,21.39,1.004228,0,48.75,55.83,32.99,34.71
"2016-08-17 21:00:00",249163,0.122,172.8,18.89,99.9,0,0,861.5934,0,-4.259,3.117,211,22.3,21.38,0.05305357,0,48.75,55.83,32.99,34.71
"2016-08-17 21:10:00",249164,0.017,173.4,18.82,100,0,0,861.5934,0,-4.338,3.118,212,22.24,21.37,0,0,48.81,55.83,33,34.71
"2016-08-17 21:20:00",249165,0.005,16.87,18.96,100,0,0,861.6629,0,-4.538,3.119,219,22.24,21.37,0.41306,0,48.75,55.83,32.99,34.71
"2016-08-17 21:30:00",249166,0.05,160.1,18.71,100,0,0,861.8209,0,-4.346,3.119,211,22.27,21.37,0.07200127,0,48.75,55.83,32.99,34.71
"2016-08-17 21:40:00",249167,0,0,18.55,100,0,0,861.7324,0,-4.759,3.123,207,22.23,21.37,0.04926403,0,48.81,55.83,33,34.71
"2016-08-17 21:50:00",249168,0.067,294.8,18.6,100,0,0,861.6376,0,-4.346,3.119,216,22.15,21.37,0.2842156,0,48.75,55.83,32.99,34.71
"2016-08-17 22:00:00",249169,0,0,18.66,100,0,0,861.6334,0,-6.413,3.139,186,22.15,21.37,0.5456939,0,48.75,55.83,32.99,34.71
"2016-08-17 22:10:00",249170,0,0,18.6,100,0,0,861.6186,0,-6.419,3.14,192,22.16,21.37,0.2766365,0,48.75,55.83,32.99,34.71
"2016-08-17 22:20:00",249171,0,0,18.42,100,0,0,861.7197,0,-6.212,3.138,193,22.16,21.37,0.181898,0,48.75,55.83,32.99,34.71
"2016-08-17 22:30:00",249172,0.114,122.3,18.23,100,0,0,861.665,0,-4.828,3.126,199,22.05,21.37,0,0,48.75,55.83,32.99,34.71
"2016-08-17 22:40:00",249173,0.075,121.6,18.17,100,0,0,861.7914,0,-4.932,3.127,203,22.06,21.37,0,0,48.81,55.83,33,34.71
"2016-08-17 22:50:00",249174,0,0,18.28,100,0,0,861.7451,0,-4.67,3.124,208,22.05,21.38,0.2160038,0,48.75,55.83,32.99,34.71
"2016-08-17 23:00:00",249175,0.115,208.6,18.3,100,0,0,861.8019,0,-4.05,3.118,220,22.06,21.41,0.2387411,0,48.81,55.83,33,34.71
"2016-08-17 23:10:00",249176,0.035,283.3,18.3,100,0,0,861.7935,0,-4.249,3.119,221,21.98,21.42,0.4244286,0,48.81,55.83,33,34.71
"2016-08-17 23:20:00",249177,0,0,18.27,100,0,0,861.8272,0,-4.154,3.119,224,21.98,21.44,0.2501097,0,48.75,55.83,32.99,34.71
"2016-08-17 23:30:00",249178,0.049,302.1,18.24,100,0,0,861.8461,0,-4.209,3.12,216,21.99,21.46,0.2273725,0,48.81,55.83,33,34.71
"2016-08-17 23:40:00",249179,0.01,26.59,18.26,100,0,0,861.8461,0,-3.971,3.117,213,22,21.45,0.2273725,0,48.81,55.83,33,34.71
"2016-08-17 23:50:00",249180,0,0,18.2,100,0,0,861.8146,0,-4.105,3.119,205,21.94,21.44,0.1743189,0,48.81,55.83,33,34.71
